Location: Cambridge (historical)
(38.6883°N, 119.0140°W)
Time: 14:27:50
(UTC+00:00)

XW-2D - Visible Passes

Search period start: 25 September 2021 00:00
Search period end: 05 October 2021 00:00
Orbit: 505 x 523 km, 97.5° (Epoch: 25 September)

Date Brightness Start Highest point End Pass type
(mag) Time Alt. Az. Time Alt. Az. Time Alt. Az.
25 Sep ? 13:08:16 10° NE 13:11:06 20° E 13:13:54 10° SE visible
26 Sep ? 12:53:46 10° ENE 12:55:36 13° E 12:57:25 10° ESE visible
29 Sep ? 02:09:07 10° SW 02:11:26 15° W 02:13:46 10° NW visible
01 Oct ? 13:09:53 10° NE 13:12:46 21° E 13:15:38 10° SE visible
02 Oct ? 12:55:19 10° ENE 12:57:16 14° E 12:59:12 10° SE visible
